Weather History for KBIS - December, 2010

Change the Weather History Date:

Wednesday, December 15, 2010

  Actual Average Record
Temperature  
Mean Temperature 18 °F 16 °F  
Max Temperature 22 °F 26 °F 57 °F (1939)
Min Temperature 14 °F 6 °F -30 °F (1963)
Degree Days  
Heating Degree Days 47 49  
Month to date heating degree days 817 699  
Since 1 July heating degree days 2684 2685  
Cooling Degree Days 0 0  
Month to date cooling degree days 0 0  
Year to date cooling degree days 507 520  
Moisture  
Dew Point 16 °F    
Average Humidity 80    
Maximum Humidity 92    
Minimum Humidity 68    
Precipitation  
Precipitation 0.02 in 0.02 in 0.25 in (1893)
Month to date precipitation 0.81 0.23  
Year to date precipitation 22.59 17.59  
Snow  
Snow 0.30 in 0.30 in 2.30 in (2005)
Month to date snowfall 12.2 4.1  
Since 1 July snowfall 25.7 15.3  
Snow Depth 9.00 in    
Sea Level Pressure  
Sea Level Pressure 29.80 in    
Wind  
Wind Speed 4 mph (ESE)    
Max Wind Speed 17 mph    
Max Gust Speed 21 mph    
Visibility 7 miles    
Events Snow    
T = Trace of Precipitation, MM = Missing Value Source: NWS Daily Summary

Daily Weather History Graph

Daily Weather History Graph

Search for Another Location

Airport or City:

Trip Planner

Search our weather history database for the weather conditions in past years. The results will help you decide how hot, cold, wet, or windy it might be!

Date:

Astronomy

Dec. 15, 2010 Rise Set
Actual Time 8:21 AM CST 4:55 PM CST
Civil Twilight 7:46 AM CST 5:30 PM CST
Nautical Twilight 7:07 AM CST 6:09 PM CST
Astronomical Twilight 6:30 AM CST 6:45 PM CST
Moon 1:13 PM CST (12/15) 2:26 AM CST (12/15)
Length of Visible Light 9h 44m
Length of Day
8h 33m
Waxing Gibbous, 70% of the Moon is Illuminated
Dec 15
Waxing Gibbous
Dec 21
Full
Dec 27
Last Quarter
Jan 4
New
Jan 12
First Quarter

Hourly Weather History & Observations

Time (CST) Temp. Windchill Dew Point Humidity Pressure Visibility Wind Dir Wind Speed Gust Speed Precip Events Conditions
12:52 AM 21.9 °F 11.0 °F 18.0 °F 85% 29.70 in 10.0 mi ESE 10.4 mph - N/A   Overcast
1:52 AM 21.9 °F 10.4 °F 18.0 °F 85% 29.71 in 9.0 mi SE 11.5 mph - 0.00 in   Overcast
2:52 AM 21.9 °F 11.7 °F 18.0 °F 85% 29.73 in 10.0 mi SE 9.2 mph - 0.00 in   Overcast
3:52 AM 21.9 °F 13.4 °F 18.0 °F 85% 29.72 in 10.0 mi ESE 6.9 mph - N/A   Overcast
4:52 AM 18.0 °F 9.8 °F 15.1 °F 88% 29.75 in 10.0 mi SE 5.8 mph - N/A   Partly Cloudy
5:52 AM 19.0 °F 8.2 °F 15.1 °F 85% 29.73 in 10.0 mi East 9.2 mph - N/A   Clear
6:52 AM 18.0 °F 12.7 °F 14.0 °F 84% 29.73 in 10.0 mi East 3.5 mph - N/A   Overcast
7:52 AM 17.1 °F 8.7 °F 14.0 °F 88% 29.74 in 10.0 mi ENE 5.8 mph - N/A   Scattered Clouds
8:52 AM 16.0 °F - 12.9 °F 88% 29.77 in 8.0 mi Calm Calm - N/A   Clear
9:52 AM 17.1 °F 6.6 °F 14.0 °F 88% 29.77 in 9.0 mi ESE 8.1 mph - N/A   Partly Cloudy
10:52 AM 21.0 °F - 15.1 °F 78% 29.79 in 10.0 mi Calm Calm - N/A   Overcast
11:52 AM 21.0 °F 16.2 °F 15.1 °F 78% 29.78 in 10.0 mi ESE 3.5 mph - N/A   Overcast
12:43 PM 21.2 °F - 12.2 °F 68% 29.71 in 10.0 mi Calm Calm - N/A   Overcast
12:52 PM 21.0 °F 14.6 °F 12.0 °F 68% 29.78 in 10.0 mi East 4.6 mph - N/A   Overcast
1:52 PM 21.0 °F 14.6 °F 12.9 °F 71% 29.80 in 10.0 mi SE 4.6 mph - N/A   Overcast
2:52 PM 21.0 °F 14.6 °F 12.9 °F 71% 29.81 in 10.0 mi ESE 4.6 mph - N/A   Overcast
3:52 PM 21.9 °F 17.2 °F 12.9 °F 68% 29.83 in 10.0 mi East 3.5 mph - N/A   Overcast
4:09 PM 21.2 °F 12.6 °F 14.0 °F 74% 29.76 in 1.5 mi ESE 6.9 mph - 0.00 in Snow Light Snow
4:13 PM 21.2 °F 12.6 °F 14.0 °F 74% 29.76 in 0.5 mi East 6.9 mph - 0.00 in Snow Snow
4:26 PM 19.4 °F - 15.8 °F 86% 29.78 in 0.8 mi Calm Calm - 0.00 in Snow Light Snow
4:47 PM 19.4 °F - 15.8 °F 86% 29.78 in 1.0 mi Calm Calm - 0.02 in Snow Light Snow
4:52 PM 19.9 °F - 16.0 °F 85% 29.87 in 1.0 mi Calm Calm - 0.02 in Snow Light Snow
5:16 PM 21.2 °F - 17.6 °F 86% 29.78 in 2.5 mi Calm Calm - 0.00 in Snow Light Snow
5:37 PM 19.4 °F - 17.6 °F 93% 29.79 in 4.0 mi Calm Calm - 0.00 in Snow Light Snow
5:52 PM 19.9 °F 10.1 °F 16.0 °F 85% 29.87 in 6.0 mi East 8.1 mph - 0.00 in   Overcast
6:35 PM 19.4 °F - 17.6 °F 93% 29.80 in 6.0 mi Calm Calm - N/A   Scattered Clouds
6:52 PM 19.9 °F - 18.0 °F 92% 29.90 in 6.0 mi Calm Calm - N/A   Mostly Cloudy
7:52 PM 19.9 °F - 18.0 °F 92% 29.90 in 6.0 mi Calm Calm - N/A   Overcast
8:52 PM 19.9 °F - 18.0 °F 92% 29.91 in 6.0 mi Calm Calm - N/A   Overcast
9:52 PM 21.0 °F - 18.0 °F 88% 29.91 in 6.0 mi Calm Calm - N/A   Overcast
10:01 PM 21.2 °F - 17.6 °F 86% 29.82 in 6.0 mi Calm Calm - N/A   Overcast
10:52 PM 19.4 °F 12.8 °F 17.6 °F 93% 29.83 in 6.0 mi ENE 4.6 mph - N/A   Overcast
11:52 PM 19.9 °F - 18.0 °F 92% 29.94 in 6.0 mi Calm Calm - N/A   Overcast